Regional Weather Roundup
Issued by NWS Jackson, KY

Home | Current Version | Previous Version | Graphics & Text | Print | Product List | Glossary On
Versions: 1 2 3 4 5 6 7 8 9 10 11 12 13 14 15 16 17 18 19 20 21 22 23 24 25 26 27
000
ASUS43 KJKL 190610
RWRJKL

EAST KENTUCKY HOURLY WEATHER ROUNDUP
NATIONAL WEATHER SERVICE JACKSON KY
100 AM EST SUN FEB 19 2017

NOTE: "FAIR" INDICATES FEW OR NO CLOUDS BELOW 12,000 FEET WITH
NO SIGNIFICANT WEATHER AND/OR OBSTRUCTIONS TO VISIBILITY.

* THESE REPORTS ARE NOT UNDER NWS QUALITY CONTROL AND MAY NOT
  REPORT WEATHER SUCH AS PRECIPITATION AND FOG.

KYZ079-080-083-085-087-088-110-112-115-119-120-190700
...EASTERN KENTUCKY...

CITY           SKY/WX    TMP DP  RH WIND       PRES   REMARKS
JACKSON        CLOUDY    46  44  93 SW5       29.97R
6HR MIN TEMP:  46; 6HR MAX TEMP:  49; 6HR PCP: TRACE;

LONDON         FOG       46  44  93 S3        29.98R VSB 1/2
6HR MIN TEMP:  45; 6HR MAX TEMP:  48; 6HR PCP:  0.01;

SOMERSET*      CLOUDY    43  43 100 CALM      30.00R FOG
MONTICELLO*    CLOUDY    44  44 100 NE10      30.00R FOG
6HR MIN TEMP:  42; 6HR MAX TEMP:  50;

WILLIAMSBURG*  CLOUDY    46  46 100 CALM      29.98R
MIDDLESBORO*   CLOUDY    47  47 100 CALM      29.99R FOG
6HR MIN TEMP:  47; 6HR MAX TEMP:  49; 6HR PCP:  0.01;

HARLAN APT*    CLOUDY    45  45 100 CALM      29.98R VSB 1/4
PIKE CO APT*   CLOUDY    46  46 100 CALM      29.96R
BIG SANDY APT* CLOUDY    48  47  96 SW3       29.96R
6HR MIN TEMP:  48; 6HR MAX TEMP:  51;

MOREHEAD APT*  CLOUDY    48  45  87 SW10      29.97S
ASHLAND*       CLOUDY    46  45  93 CALM      29.93S
$$

KYZ035-036-041-042-044-050-067-078-099-190700
...CENTRAL KENTUCKY...

CITY           SKY/WX    TMP DP  RH WIND       PRES   REMARKS
MT STERLING*   RAIN      46  45  93 W7        29.98S
FLEMING/MASON* CLOUDY    46  45  97 SW8       29.96R
DANVILLE*      CLOUDY    45  43  93 S5        29.98S
LEXINGTON      LGT RAIN  47  44  90 SW6       29.97R
6HR MIN TEMP:  47; 6HR MAX TEMP:  50; 6HR PCP:  0.05;

FRANKFORT      CLOUDY    48  45  89 SW5       29.95R FOG
6HR MIN TEMP:  48; 6HR MAX TEMP:  51; 6HR PCP:  0.10;

LOUISVILLE     CLOUDY    51  47  86 SW5       29.96R
6HR MIN TEMP:  50; 6HR MAX TEMP:  52; 6HR PCP:  0.05;

LEBANON*       MOCLDY    46  46 100 S5        29.98R
GLASGOW*       MOCLDY    47  47 100 CALM      29.98R
BOWLING GREEN  PTCLDY    49  46  90 CALM      29.98R FOG
6HR MIN TEMP:  47; 6HR MAX TEMP:  53;

$$

KYZ091>093-OHZ055-061-077-WVZ005-015-034-035-042-190700
...SOUTHERN OHIO/WEST VIRGINIA...

CITY           SKY/WX    TMP DP  RH WIND       PRES   REMARKS
COVINGTON      CLOUDY    51  47  86 W8        29.93R
COLUMBUS       CLOUDY    48  42  80 S5        29.89R
DAYTON         MOCLDY    47  44  90 SW16      29.90R
WILMINGTON     CLOUDY    49  46  90 W13       29.91R
HUNTINGTON     LGT RAIN  47  45  93 SW3       29.94R
CHARLESTON     LGT RAIN  47  44  90 CALM      29.95R FOG
PINEVILLE*     CLOUDY    46  38  72 MISG      29.99R
BECKLEY        CLOUDY    47  33  58 N6        29.92S
BLUEFIELD      CLOUDY    46  34  62 W8        29.94R
LOGAN CO APT*  CLOUDY    48  43  81 CALM      29.94R
$$

VAZ002-007-008-TNZ017-027-036-066-071-190700
...SOUTHWEST VIRGINIA/EAST TENNESSEE...

CITY           SKY/WX    TMP DP  RH WIND       PRES   REMARKS
WISE*          CLOUDY    45  45 100 CALM      29.97R
JONESVILLE*    CLOUDY    46  46 100 CALM      30.00R FOG
ABINGDON*      CLOUDY    48  44  85 W8        29.98R
BRISTOL        DRIZZLE   47  45  93 SW5       29.99R
MORRISTOWN*    CLOUDY    50  48  93 W6        29.97S
SEVIERVILLE*   CLOUDY    48  46  93 CALM      29.99R
KNOXVILLE      CLOUDY    50  48  93 W6        29.99R FOG
LAFOLLETTE*    CLOUDY    48  48 100 CALM      30.01S FOG
OAK RIDGE      CLOUDY    50  48  93 CALM      30.01R FOG
CROSSVILLE     CLOUDY    47  45  93 SW3       29.99R
NASHVILLE      CLOUDY    52  47  83 S5        29.98R
$$

...KEY TO REMARKS...
VSB - VISIBILITY IN MILES
WCI - WIND CHILL INDEX
HX  - HEAT INDEX

$$




USA.gov is the U.S. government's official web portal to all federal, state and local government web resources and services.